Regional Weather Roundup
Issued by NWS Jackson, KY

Home | Current Version | Previous Version | Text Only | Print | Product List | Glossary Off
Versions: 1 2 3 4 5 6 7 8 9 10 11 12 13 14 15 16 17 18 19 20 21 22 23 24 25 26 27 28 29 30 31 32 33 34 35 36 37 38 39 40 41 42 43 44 45 46 47 48 49 50

000
ASUS43 KJKL 302210
RWRJKL

EAST KENTUCKY HOURLY WEATHER ROUNDUP
NATIONAL WEATHER SERVICE JACKSON KY
600 PM EDT SAT JUL 30 2016

NOTE: "FAIR" INDICATES FEW OR NO CLOUDS BELOW 12,000 FEET WITH
NO SIGNIFICANT WEATHER AND/OR OBSTRUCTIONS TO VISIBILITY.

* THESE REPORTS ARE NOT UNDER NWS QUALITY CONTROL AND MAY NOT
  REPORT WEATHER SUCH AS PRECIPITATION AND FOG.

KYZ079-080-083-085-087-088-110-112-115-119-120-302300
...EASTERN KENTUCKY...

CITY           SKY/WX    TMP DP  RH WIND       PRES   REMARKS
JACKSON        MOSUNNY   82  70  66 CALM      29.99S
LONDON         SUNNY     86  67  52 W10       29.99S
SOMERSET*      PTSUNNY   82  66  57 W8        30.00S
MONTICELLO*    MOSUNNY  N/A N/A N/A W14       30.01S
WILLIAMSBURG*  PTCLDY    84  72  65 W6        29.99S
MIDDLESBORO*   MOSUNNY   86  72  61 SW5       30.00R HX  92
HARLAN APT*      N/A     84  68  58 S3        30.01S
PIKE CO APT*     N/A     84  70  63 W6        30.00R
BIG SANDY APT* MOCLDY    82  73  76 CALM      29.99R
MOREHEAD APT*  PTCLDY    82  66  57 W3        29.98S
ASHLAND*       MOSUNNY   86  73  66 W7        29.92S HX  93
$$

KYZ035-036-041-042-044-050-067-078-099-302300
...CENTRAL KENTUCKY...

CITY           SKY/WX    TMP DP  RH WIND       PRES   REMARKS
MT STERLING*   MOSUNNY   82  70  65 W7        29.98S
FLEMING/MASON* CLOUDY    80  71  75 W3        29.98R
DANVILLE*      MOSUNNY   84  73  70 S6        29.98S HX  91
LEXINGTON      LGT RAIN  75  67  76 NW12      29.99R
FRANKFORT      CLOUDY    74  69  85 NW5       29.97F
LOUISVILLE     PTSUNNY   81  68  64 W6        29.95S
LEBANON*         N/A     86  72  62 SW7       29.97S HX  92
GLASGOW*       MOSUNNY   86  70  58 SW7       29.97R HX  90
BOWLING GREEN  MOSUNNY   88  71  57 SW8       29.96S HX  94
$$

KYZ091>093-OHZ055-061-077-WVZ005-015-034-035-042-302300
...SOUTHERN OHIO/WEST VIRGINIA...

CITY           SKY/WX    TMP DP  RH WIND       PRES   REMARKS
COVINGTON      CLOUDY    82  69  64 W7        29.95S
COLUMBUS       MOSUNNY   85  66  53 W13       29.91S
DAYTON         MOSUNNY   83  67  58 W8        29.96R
WILMINGTON     PTSUNNY   84  69  60 SW8       29.94S
HUNTINGTON       N/A     85  69  58 W5        29.94S
CHARLESTON       N/A     83  70  64 SW8       29.95F
PINEVILLE*       N/A     85  64  49 MISG      30.06R
BECKLEY          N/A     80  65  59 W8        30.04F
BLUEFIELD      PTSUNNY   77  66  68 W7        30.08S
LOGAN CO APT*  DRIZZLE   81  72  74 CALM      30.00R
$$

VAZ002-007-008-TNZ017-027-036-066-071-302300
...SOUTHWEST VIRGINIA/EAST TENNESSEE...

CITY           SKY/WX    TMP DP  RH WIND       PRES   REMARKS
WISE*          PTSUNNY   82  59  44 W3        30.09R
JONESVILLE*    LGT RAIN  81  75  83 N6        30.03R
ABINGDON*      PTSUNNY   84  67  57 W9        30.05R
BRISTOL        MOSUNNY   85  67  54 SW5       30.01S
MORRISTOWN*    PTCLDY    88  68  51 VRB5      29.99S HX  91
SEVIERVILLE*     N/A     91  66  43 W8        29.98R HX  94
KNOXVILLE      MOSUNNY   88  68  51 SW12      29.97S HX  91
OAK RIDGE      PTSUNNY   92  69  47 VRB5      29.99S HX  97
CROSSVILLE     PTSUNNY   81  68  64 W7        30.05S
NASHVILLE      PTSUNNY   88  70  55 SW3       29.98S HX  93
$$

...KEY TO REMARKS...
VSB - VISIBILITY IN MILES
WCI - WIND CHILL INDEX
HX  - HEAT INDEX

$$



USA.gov is the U.S. government's official web portal to all federal, state and local government web resources and services.